O'Neill, NE

12:14 AM CDT on April 22, 2018 (GMT -0500)
The O'Neill Municipal-Baker

Weather History for KONL - April, 2013

Change the Weather History Date:

Wednesday, April 3, 2013

  Actual Average Record
Temperature  
Mean Temperature 47 °F -  
Max Temperature 62 °F 52 °F 93 °F (1999)
Min Temperature 32 °F 28 °F 0 °F (1975)
Degree Days  
Heating Degree Days 18    
Moisture  
Dew Point 27 °F    
Average Humidity 50    
Maximum Humidity 83    
Minimum Humidity 24    
Precipitation  
Precipitation 0.00 in - - ()
Sea Level Pressure  
Sea Level Pressure 30.14 in    
Wind  
Wind Speed 15 mph (SSW)    
Max Wind Speed 25 mph    
Max Gust Speed 33 mph    
Visibility 10 miles    
Events      
Averages and records for this station are not official NWS values.
T = Trace of Precipitation, MM = Missing Value Source: NWS Daily Summary

Daily Weather History Graph

Daily Weather History Graph

Search for Another Location

Airport or City:

Astronomy

Apr. 03, 2013 Rise Set
Actual Time 7:13 AM CDT 8:03 PM CDT
Civil Twilight 6:44 AM CDT 8:31 PM CDT
Nautical Twilight 6:10 AM CDT 9:05 PM CDT
Astronomical Twilight 5:35 AM CDT 9:41 PM CDT
Moon 3:03 AM CDT (4/3) 1:09 PM CDT (4/3)
Length of Visible Light 13h 47m
Length of Day
12h 50m
Last Quarter, 44% of the Moon is Illuminated
Apr 3
Last Quarter
Apr 10
New
Apr 18
First Quarter
Apr 25
Full
May 2
Last Quarter

Hourly Weather History & Observations

Time (CDT) Temp. Windchill Dew Point Humidity Pressure Visibility Wind Dir Wind Speed Gust Speed Precip Events Conditions
12:15 AM 38.5 °F 29.6 °F 27.1 °F 64% 30.16 in 10.0 mi ESE 16.1 mph 21.9 mph N/A   Clear
12:35 AM 37.9 °F 28.5 °F 27.1 °F 65% 30.16 in 10.0 mi ESE 17.3 mph - N/A   Clear
12:55 AM 38.3 °F 30.1 °F 27.3 °F 65% 30.16 in 10.0 mi SE 13.8 mph - N/A   Clear
1:15 AM 37.4 °F 29.8 °F 27.3 °F 67% 30.16 in 10.0 mi SE 11.5 mph 17.3 mph N/A   Clear
1:35 AM 37.6 °F 30.5 °F 27.3 °F 66% 30.16 in 10.0 mi SE 10.4 mph - N/A   Clear
1:55 AM 38.3 °F 30.5 °F 27.0 °F 64% 30.16 in 10.0 mi SSE 12.7 mph 16.1 mph N/A   Clear
2:15 AM 37.8 °F 29.4 °F 26.8 °F 65% 30.17 in 10.0 mi SSE 13.8 mph - N/A   Clear
2:35 AM 36.9 °F 29.6 °F 26.8 °F 67% 30.17 in 10.0 mi SSE 10.4 mph - N/A   Clear
2:55 AM 36.0 °F 28.5 °F 27.0 °F 70% 30.17 in 10.0 mi SSE 10.4 mph - N/A   Clear
3:15 AM 35.2 °F 27.6 °F 27.0 °F 72% 30.17 in 10.0 mi SSE 10.4 mph - N/A   Clear
3:35 AM 34.7 °F 27.5 °F 27.0 °F 73% 30.17 in 10.0 mi SSE 9.2 mph - N/A   Clear
3:55 AM 33.8 °F 27.0 °F 26.6 °F 75% 30.17 in 10.0 mi South 8.1 mph - N/A   Clear
4:15 AM 33.3 °F 26.4 °F 26.8 °F 77% 30.17 in 10.0 mi South 8.1 mph - N/A   Clear
4:35 AM 34.0 °F 27.2 °F 27.3 °F 77% 30.17 in 10.0 mi South 8.1 mph - N/A   Clear
4:55 AM 32.9 °F 25.3 °F 27.1 °F 79% 30.17 in 10.0 mi South 9.2 mph - N/A   Clear
5:15 AM 32.9 °F 26.7 °F 27.3 °F 80% 30.17 in 10.0 mi South 6.9 mph - N/A   Clear
5:35 AM 32.5 °F 25.5 °F 27.1 °F 80% 30.17 in 10.0 mi South 8.1 mph - N/A   Clear
5:55 AM 32.2 °F 25.8 °F 27.1 °F 82% 30.18 in 10.0 mi South 6.9 mph - N/A   Clear
6:15 AM 32.2 °F 25.8 °F 27.3 °F 82% 30.18 in 10.0 mi South 6.9 mph - N/A   Clear
6:35 AM 32.4 °F 26.0 °F 27.3 °F 82% 30.18 in 10.0 mi SSW 6.9 mph - N/A   Clear
6:55 AM 32.0 °F 24.8 °F 27.3 °F 83% 30.19 in 10.0 mi South 8.1 mph - N/A   Clear
7:15 AM 32.0 °F 24.2 °F 27.1 °F 82% 30.19 in 10.0 mi SSW 9.2 mph - N/A   Clear
7:35 AM 32.0 °F 24.8 °F 27.3 °F 83% 30.20 in 10.0 mi South 8.1 mph - N/A   Clear
7:55 AM 32.4 °F 26.0 °F 27.9 °F 83% 30.21 in 10.0 mi South 6.9 mph - N/A   Clear
8:15 AM 34.5 °F 28.6 °F 28.9 °F 80% 30.20 in 10.0 mi South 6.9 mph - N/A   Clear
8:35 AM 37.0 °F 30.4 °F 30.4 °F 77% 30.19 in 10.0 mi South 9.2 mph - N/A   Clear
8:55 AM 40.8 °F 34.1 °F 31.6 °F 70% 30.19 in 10.0 mi SSW 11.5 mph - N/A   Clear
9:15 AM 43.7 °F 37.3 °F 31.5 °F 62% 30.19 in 10.0 mi SW 12.7 mph 20.7 mph N/A   Clear
9:35 AM 46.2 °F 39.5 °F 30.9 °F 55% 30.19 in 10.0 mi SW 16.1 mph - N/A   Clear
9:55 AM 48.0 °F - 29.7 °F 49% 30.18 in 10.0 mi SW 19.6 mph 23.0 mph N/A   Clear
10:15 AM 50.4 °F - 30.0 °F 46% 30.17 in 10.0 mi SW 21.9 mph - N/A   Clear
10:35 AM 52.0 °F - 30.0 °F 43% 30.17 in 10.0 mi SW 20.7 mph 29.9 mph N/A   Clear
10:55 AM 52.7 °F - 29.3 °F 41% 30.17 in 10.0 mi SW 19.6 mph 26.5 mph N/A   Clear
11:15 AM 54.1 °F - 28.6 °F 37% 30.17 in 10.0 mi SSW 23.0 mph 27.6 mph N/A   Clear
11:35 AM 55.4 °F - 28.2 °F 35% 30.17 in 10.0 mi SW 20.7 mph - N/A   Clear
11:55 AM 56.5 °F - 27.9 °F 33% 30.16 in 10.0 mi SSW 24.2 mph 28.8 mph N/A   Clear
12:15 PM 56.7 °F - 27.9 °F 33% 30.16 in 10.0 mi SSW 21.9 mph 28.8 mph N/A   Clear
12:35 PM 57.4 °F - 27.7 °F 32% 30.15 in 10.0 mi SW 25.3 mph 29.9 mph N/A   Clear
12:55 PM 58.5 °F - 27.5 °F 31% 30.15 in 10.0 mi SW 23.0 mph 27.6 mph N/A   Clear
1:15 PM 59.4 °F - 27.3 °F 29% 30.14 in 10.0 mi SSW 20.7 mph 31.1 mph N/A   Clear
1:35 PM 60.3 °F - 26.8 °F 28% 30.13 in 10.0 mi SW 25.3 mph 28.8 mph N/A   Clear
1:55 PM 60.4 °F - 26.6 °F 28% 30.13 in 10.0 mi SSW 21.9 mph 28.8 mph N/A   Clear
2:15 PM 61.0 °F - 25.9 °F 26% 30.12 in 10.0 mi SW 20.7 mph 29.9 mph N/A   Clear
2:35 PM 61.9 °F - 24.6 °F 24% 30.11 in 10.0 mi SSW 20.7 mph 32.2 mph N/A   Clear
2:55 PM 62.2 °F - 24.8 °F 24% 30.10 in 10.0 mi SSW 24.2 mph 31.1 mph N/A   Clear
3:15 PM 61.3 °F - 24.6 °F 25% 30.10 in 10.0 mi SSW 21.9 mph 32.2 mph N/A   Clear
3:35 PM 61.9 °F - 24.8 °F 24% 30.10 in 10.0 mi SW 24.2 mph 33.4 mph N/A   Clear
3:55 PM 61.3 °F - 24.8 °F 25% 30.09 in 10.0 mi South 21.9 mph 32.2 mph N/A   Clear
4:15 PM 61.3 °F - 25.0 °F 25% 30.09 in 10.0 mi SSW 23.0 mph 32.2 mph N/A   Clear
4:35 PM 61.0 °F - 24.1 °F 24% 30.08 in 10.0 mi SW 24.2 mph 29.9 mph N/A   Clear
4:55 PM 61.2 °F - 24.3 °F 24% 30.08 in 10.0 mi SSW 23.0 mph 32.2 mph N/A   Clear
5:15 PM 61.0 °F - 24.4 °F 25% 30.07 in 10.0 mi SSW 21.9 mph 27.6 mph N/A   Clear
5:35 PM 60.8 °F - 23.9 °F 24% 30.07 in 10.0 mi SW 20.7 mph 29.9 mph N/A   Clear
5:55 PM 60.4 °F - 23.5 °F 24% 30.07 in 10.0 mi SSW 20.7 mph 28.8 mph N/A   Clear
6:15 PM 60.1 °F - 24.1 °F 25% 30.07 in 10.0 mi SSW 19.6 mph 26.5 mph N/A   Clear
6:35 PM 59.7 °F - 24.4 °F 26% 30.07 in 10.0 mi SSW 19.6 mph 25.3 mph N/A   Clear
6:55 PM 59.0 °F - 24.4 °F 27% 30.07 in 10.0 mi SSW 19.6 mph 25.3 mph N/A   Clear
7:15 PM 58.1 °F - 24.8 °F 28% 30.07 in 10.0 mi SSW 18.4 mph 24.2 mph N/A   Clear
7:35 PM 56.8 °F - 25.3 °F 30% 30.08 in 10.0 mi SSW 13.8 mph 20.7 mph N/A   Clear
7:55 PM 54.9 °F - 25.5 °F 32% 30.08 in 10.0 mi SSW 13.8 mph - N/A   Clear
8:15 PM 52.3 °F - 25.9 °F 36% 30.08 in 10.0 mi South 13.8 mph - N/A   Clear
8:35 PM 51.3 °F - 26.2 °F 38% 30.08 in 10.0 mi South 13.8 mph - N/A   Clear
8:55 PM 50.2 °F - 26.4 °F 40% 30.09 in 10.0 mi South 13.8 mph - N/A   Clear
9:15 PM 49.8 °F - 25.9 °F 39% 30.08 in 10.0 mi South 16.1 mph - N/A   Clear
9:35 PM 49.3 °F - 25.9 °F 40% 30.08 in 10.0 mi South 18.4 mph 23.0 mph N/A   Clear
9:55 PM 48.6 °F - 26.1 °F 42% 30.09 in 10.0 mi South 16.1 mph 20.7 mph N/A   Clear
10:15 PM 47.5 °F - 25.7 °F 43% 30.09 in 10.0 mi South 16.1 mph - N/A   Clear
10:35 PM 46.6 °F - 25.7 °F 44% 30.09 in 10.0 mi South 17.3 mph - N/A   Clear
10:55 PM 45.9 °F 38.8 °F 25.7 °F 45% 30.08 in 10.0 mi South 17.3 mph - N/A   Clear
11:15 PM 44.8 °F 38.0 °F 25.9 °F 48% 30.09 in 10.0 mi South 15.0 mph 20.7 mph N/A   Clear
11:35 PM 43.9 °F 37.2 °F 26.2 °F 50% 30.09 in 10.0 mi SSW 13.8 mph - N/A   Clear
11:55 PM 43.7 °F 36.6 °F 26.8 °F 51% 30.09 in 10.0 mi SSW 15.0 mph 20.7 mph N/A   Clear